This is the latest recevied weather packets stored in our database for station/object KD4WXI. If no packets are shown the sender has not sent any weather packets the latest 10 day(s).
| Time | Temp. | Humidity | Pressure | Rain* | Wind** | Luminosity | Snow |
|---|---|---|---|---|---|---|---|
| 1778103680 | 22.22° C | 80% | 1012.7 hPa | 0 mm | - | 101 W/m² | - |
| 1778103378 | 22.22° C | 79% | 1012.7 hPa | 0 mm | - | 105 W/m² | - |
| 1778103075 | 22.22° C | 80% | 1012.7 hPa | 0 mm | - | 117 W/m² | - |
| 1778102772 | 22.22° C | 79% | 1012.6 hPa | 0 mm | - | 120 W/m² | - |
| 1778102467 | 22.22° C | 79% | 1012.5 hPa | 0 mm | - | 131 W/m² | - |
| 1778102163 | 22.22° C | 80% | 1012.2 hPa | 0 mm | - | 133 W/m² | - |
| 1778101860 | 22.22° C | 80% | 1012.2 hPa | 0 mm | - | 145 W/m² | - |
| 1778101556 | 22.22° C | 81% | 1012.2 hPa | 0 mm | - | 138 W/m² | - |
| 1778101253 | 22.22° C | 81% | 1012.5 hPa | 0 mm | - | 120 W/m² | - |
| 1778100950 | 22.22° C | 81% | 1012.3 hPa | 0 mm | - | 139 W/m² | - |
| 1778100645 | 21.67° C | 81% | 1012.6 hPa | 0 mm | - | 123 W/m² | - |
| 1778100343 | 22.22° C | 81% | 1012.7 hPa | 0 mm | - | 64 W/m² | - |
| 1778100040 | 22.22° C | 81% | 1012.8 hPa | 0 mm | - | 109 W/m² | - |
| 1778099738 | 22.22° C | 80% | 1012.8 hPa | 0 mm | - | 149 W/m² | - |
| 1778099435 | 22.22° C | 81% | 1013.2 hPa | 0 mm | - | 159 W/m² | - |
| 1778099132 | 22.22° C | 80% | 1013 hPa | 0 mm | - | 201 W/m² | - |
| 1778098828 | 22.22° C | 80% | 1013 hPa | 0 mm | - | 209 W/m² | - |
| 1778098526 | 22.22° C | 79% | 1013.2 hPa | 0 mm | - | 177 W/m² | - |
| 1778098222 | 22.22° C | 78% | 1012.8 hPa | 0 mm | - | 230 W/m² | - |
| 1778097918 | 22.22° C | 79% | 1013.2 hPa | 0 mm | - | 250 W/m² | - |
| 1778097615 | 22.22° C | 78% | 1013.1 hPa | 0 mm | - | 478 W/m² | - |
| 1778097313 | 22.78° C | 80% | 1013.2 hPa | 0 mm | - | 456 W/m² | - |
| 1778097009 | 21.67° C | 81% | 1013 hPa | 0 mm | - | 393 W/m² | - |
| 1778096706 | 21.67° C | 81% | 1012.9 hPa | 0 mm | - | 245 W/m² | - |
| 1778096402 | 21.67° C | 81% | 1012.7 hPa | 0 mm | - | 384 W/m² | - |
* Rain latest hour (hover to see other rain measurements)
** Current wind speed in m/s (hover to see current wind gust speed)